Location: Asheville, NC
(35.6000°N, 82.5500°W)
Time: 12:03:34

RS-15 - Pass Details

Date: 15 March 2018
Orbit: 1888 x 2157 km, 64.8° (Epoch: 23 March)

Event Time Altitude Azimuth Distance (km) Brightness Sun altitude
Exits shadow 03:34:46 20° 316° (NW) 3,872 9.5 -47.1°
Maximum altitude 03:37:14 21° 331° (NNW) 3,780 9.5 -46.8°
Drops below altitude 10° 03:45:37 10° 17° (NNE) 4,544 10.4 -45.5°
Sets 03:50:28 0° 33° (NNE) 5,500 11.1 -44.8°
